Tracking 22458 objects as of 2-Mar-2021
HD Live streaming from Space Station
objects crossing your sky now

COSMOS 2491 DEB

Track COSMOS 2491 DEB now!
10-day predictions


NORAD ID: 44913
Int'l Code: 2013-076G
Perigee: 1,421.7 km
Apogee: 1,511.4 km
Inclination: 82.5 °
Period: 115.1 minutes
Semi major axis: 7837 km
RCS: Unknown
Launch date: December 25, 2013
Source: Commonwealth of Independent States (former USSR) (CIS)
Launch site: PLESETSK MISSILE AND SPACE COMPLEX (PKMTR)

Note: This is SATELLITE DEBRIS
aabbcc
Your satellite tracking list
Your tracking list is empty




NASA's NSSDC Master Catalog

Two Line Element Set (TLE):
1 44913U 13076G   20027.76047500 +.00001435 +00000-0 +91773-2 0  9990
2 44913 082.4669 182.7650 0057233 357.9465 002.0076 12.51219187003124
Source of the keplerian elements: AFSPC